Tracking 18816 objects as of 18-October-2017
HD Live streaming from Space Station
objects crossing your sky now

ARIANE 44LP DEB

Track ARIANE 44LP DEB now!
10-day predictions


NORAD ID: 27662
Int'l Code: 1991-015N
Perigee: 404.7 km
Apogee: 24,036.4 km
Inclination: 5.9 °
Period: 420.5 minutes
Semi major axis: 18591 km
RCS: 0.2322 m2 (medium)
Launch date: March 2, 1991
Source: France (FR)
Launch site: FRENCH GUIANA (FRGUI)

Note: This is SATELLITE DEBRIS
aabbcc
Your satellite tracking list
Your tracking list is empty





NASA's NSSDC Master Catalog

Two Line Element Set (TLE):
1 27662U 91015N   17290.54383384  .00002251  00000-0  28879-2 0  9992
2 27662   5.8769  83.3233 6355496 183.8294 166.9262  3.42474899216725
Source of the keplerian elements: AFSPC